Change the Weather History Date:

Friday, April 25, 2014

  Actual Average Record
Temperature  
Mean Temperature 58 °F -  
Max Temperature 62 °F - - ()
Min Temperature 54 °F - - ()
Degree Days  
Heating Degree Days 7    
Growing Degree Days 8 (Base 50)    
Moisture  
Dew Point 53 °F    
Average Humidity 80    
Maximum Humidity 93    
Minimum Humidity 64    
Precipitation  
Precipitation 0.00 in - - ()
Sea Level Pressure  
Sea Level Pressure 29.92 in    
Wind  
Wind Speed 3 mph ()    
Max Wind Speed 9 mph    
Max Gust Speed -    
Visibility 12.3 miles    
Events Rain    
T = Trace of Precipitation, MM = Missing Value Source: Averaged Metar Reports

Daily Weather History Graph

Daily Weather History Graph

Search for Another Location

Airport or City:

Trip Planner

Search our weather history database for the weather conditions in past years. The results will help you decide how hot, cold, wet, or windy it might be!

Date:

Astronomy

Apr. 25, 2014 Rise Set
Actual Time 5:43 AM CEST 7:56 PM CEST
Civil Twilight 5:09 AM CEST 8:30 PM CEST
Nautical Twilight 4:27 AM CEST 9:12 PM CEST
Astronomical Twilight 3:40 AM CEST 10:00 PM CEST
Moon 3:41 AM CEST (4/25) 3:40 PM CEST (4/25)
Length of Visible Light 15h 20m
Length of Day
14h 12m
Waning Crescent, 17% of the Moon is Illuminated
Apr 25
Waning Crescent
Apr 29
New
May 7
First Quarter
May 14
Full
May 21
Last Quarter

Hourly Weather History & Observations

Time (CEST) Temp. Dew Point Humidity Pressure Visibility Wind Dir Wind Speed Gust Speed Precip Events Conditions
12:00 AM 56 °F 52 °F 81% 29.94 in - NW 8.9 mph - -  
1:00 AM 57 °F 52 °F 76% 29.95 in - NW 6.7 mph - -  
2:00 AM 56 °F 51 °F 80% 29.95 in - Calm Calm - -  
3:00 AM 56 °F 51 °F 79% 29.94 in - Calm Calm - -  
4:00 AM 56 °F 51 °F 79% 29.93 in - Calm Calm - -  
5:00 AM 55 °F 52 °F 86% 29.94 in - 2.2 mph - -  
6:00 AM 55 °F 52 °F 87% 29.93 in - NNE 4.5 mph - -  
7:00 AM 56 °F 52 °F 83% 29.94 in - Calm Calm - -  
8:00 AM 56 °F 53 °F 87% 29.94 in 9 mi 2.2 mph - - Rain Light Rain
9:00 AM 58 °F 54 °F 80% 29.93 in 9 mi 2.2 mph - - Rain Light Rain
10:00 AM 60 °F 54 °F 74% 29.93 in 12 mi 2.2 mph - -   Overcast
11:00 AM 61 °F 53 °F 68% 29.93 in 12 mi 2.2 mph - -   Partly Cloudy
12:00 PM 60 °F 52 °F 67% 29.93 in 16 mi East 4.5 mph - -   Overcast
1:00 PM 61 °F 53 °F 68% 29.91 in 16 mi 2.2 mph - -   Overcast
2:00 PM 62 °F 53 °F 64% 29.90 in 12 mi ENE 4.5 mph - -   Partly Cloudy
3:00 PM 61 °F 54 °F 70% 29.89 in - 6.7 mph - -  
4:00 PM 60 °F 54 °F 75% 29.89 in - 6.7 mph - -  
5:00 PM 59 °F 54 °F 79% 29.89 in - 2.2 mph - -  
6:00 PM 59 °F 54 °F 79% 29.88 in - 2.2 mph - -  
7:00 PM 58 °F 54 °F 83% 29.88 in - 2.2 mph - -  
8:00 PM 56 °F 54 °F 92% 29.89 in - 4.5 mph - -  
9:00 PM 56 °F 54 °F 93% 29.90 in - 2.2 mph - -  
10:00 PM 56 °F 54 °F 93% 29.90 in - 2.2 mph - -  
11:00 PM 56 °F 54 °F 91% 29.90 in - 2.2 mph - -